STARLINK-34384

Last updated on Thu Jul 03 2025 00:02:06 GMT+0000 (Coordinated Universal Time)

1 64312U 25123X 25183.58335648 -.01534931 00000+0 -31710-1 0 9990 2 64312 69.9989 120.0708 0002944 276.3720 322.3479 15.48603333 5070
UTC large
Height (km)
Speed (km/s)
/
Latitude / Longitude
Inclination (degrees)
Orbital Period (minutes)
Azimuth
Elevation
Range (km)
Doppler Factor

Next 0 passes for location: London (51.5072 / 0.1276)

Sorry there are no passes over London.